Regional Weather Roundup
Issued by NWS

Home | Current Version | Previous Version | Text Only | Print | Product List | Glossary Off
Versions: 1 2 3 4 5 6 7 8 9 10 11 12 13 14 15 16 17 18 19 20 21 22 23 24 25 26 27 28 29 30 31 32 33 34 35 36 37 38 39 40 41 42 43 44 45 46 47 48 49 50

838
ASUS43 KIND 232109
RWRIN

WEATHER ROUNDUP FOR INDIANA
NATIONAL WEATHER SERVICE INDIANAPOLIS IN
400 PM EST THU FEB 23 2017

NOTE: "FAIR" INDICATES FEW OR NO CLOUDS BELOW 12,000 FEET WITH NO
SIGNIFICANT WEATHER AND/OR OBSTRUCTIONS TO VISIBILITY.

* - STATION DOES NOT REPORT WEATHER SUCH AS PRECIPITATION OR FOG.

+ - STATION NOT QUALITY CONTROLLED BY THE NATIONAL WEATHER SERVICE.
    USE DATA WITH CAUTION...ESPECIALLY DEWPOINT AND RELATIVE
    HUMIDITY OBSERVATIONS.

INZ001>003-010>013-019-020-232200-
NORTHWEST INDIANA

CITY           SKY/WX    TMP DP  RH WIND       PRES   REMARKS
GARY /AIRPORT/ CLOUDY    41  37  87 N12G23    29.82S
KNOX *+        CLOUDY    48  25  40 N13       29.77F
LA PORTE +     MOSUNNY   44  39  82 N9        29.80S
MICHIGAN CITY+ CLOUDY    37  36  93 N9        29.82S
MONTICELLO +   CLOUDY    58  46  66 NE6       29.74S
RENSSELAER +   CLOUDY    52  45  76 N13       29.75F
VALPARAISO     CLOUDY    46  40  79 N12G17    29.79S

$$

LMZ046-743>745-232200-
SOUTHERN LAKE MICHIGAN

STATION/POSITION TIME  TEMP    WIND        PRES    WAVE
                       AIR SEA DIR/SP/G            HT
                 (UTC) (F)     (DEG/KT/KT) (MB)    (FT)
BURNS HARBOR     2040   38      50/  6/ 10 1010.8R
MICHIGAN CITY    2040   36      20/ 12/ 13   N/A

$$

INZ004-005-014>016-021>024-232200-
NORTH CENTRAL INDIANA

CITY           SKY/WX    TMP DP  RH WIND       PRES   REMARKS
ELKHART        SUNNY     48  41  76 N5        29.79S
GOSHEN         CLOUDY    53  42  66 N9        29.77S
LOGANSPORT +   CLOUDY    63  46  55 E5        29.76R
PERU/GRISSOM   CLOUDY    62  55  77 SW3       29.74R
ROCHESTER +    CLOUDY    61  46  59 N9        29.76R
SOUTH BEND     CLOUDY    46  39  76 N9        29.79F
WARSAW +       CLOUDY    57  46  67 N8        29.76R

$$

INZ006>009-017-018-025>027-232200-
NORTHEAST INDIANA

CITY           SKY/WX    TMP DP  RH WIND       PRES   REMARKS
ANGOLA *+      SUNNY     59  48  67 N6        29.76S
AUBURN +       CLOUDY    63  45  51 NW3       29.76F
FORT WAYNE     CLOUDY    64  52  64 S6        29.75S
HUNTINGTON +   CLOUDY    63  52  67 SW3       29.75F
KENDALLVILLE + CLOUDY    61  47  59 CALM      29.76F

$$

INZ028-029-035-036-043>045-051>053-232200-
WEST CENTRAL INDIANA

CITY           SKY/WX    TMP DP  RH WIND       PRES   REMARKS
LAFAYETTE      PTSUNNY   61  54  77 NE6       29.72F
TERRE HAUTE    CLOUDY    71  53  52 SW12      29.69F

$$

INZ030>032-037>040-046>048-054>057-064-065-232200-
CENTRAL INDIANA

CITY           SKY/WX    TMP DP  RH WIND       PRES   REMARKS
ANDERSON       CLOUDY    64  55  72 NW6       29.76R
CP ATTERBURY + CLOUDY    68  52  56 SW12      29.74R
COLUMBUS       CLOUDY    66  57  72 S9G17     29.74R
FRANKFORT +    CLOUDY    65  57  76 N5        29.75F
GREENWOOD *+   CLOUDY    70  55  58 SW6       29.74R
INDIANAPOLIS   CLOUDY    68  54  60 W7        29.72R
-EAGLE CREEK   CLOUDY    67  54  63 W7        29.72R
KOKOMO +       CLOUDY    61  55  81 CALM      29.76S
MARION +       CLOUDY    61  54  78 NW5       29.76S
MT COMFORT *+  CLOUDY    66  54  63 NW5       29.74R
SHELBYVILLE    CLOUDY    69  53  56 S14       29.73R
ZIONSVILLE +   CLOUDY    66  54  65 W7        29.74S

$$

INZ033-034-041-042-049-050-058-059-232200-
EAST CENTRAL INDIANA

CITY           SKY/WX    TMP DP  RH WIND       PRES   REMARKS
MUNCIE         CLOUDY    64  55  72 NW5       29.75R

$$

INZ060-061-067>069-081>083-085>088-232200-
SOUTHWEST INDIANA

CITY           SKY/WX    TMP DP  RH WIND       PRES   REMARKS
EVANSVILLE     PTSUNNY   73  55  53 S13       29.70F
HUNTINGBURG *+ CLOUDY    68  57  68 S9        29.72F
WASHINGTON +   CLOUDY    70  54  57 S13       29.70F

$$

INZ062-063-066-070>080-084-089>092-232200-
SOUTH CENTRAL AND SOUTHEAST INDIANA

CITY           SKY/WX    TMP DP  RH WIND       PRES   REMARKS
BEDFORD +      CLOUDY   N/A N/A N/A S7        29.72F
BLOOMINGTON    CLOUDY    68  53  58 S10       29.72S
MADISON *+     CLOUDY    68  54  60 S7        29.78S
NORTH VERNON + CLOUDY    68  55  64 S9        29.75S
SEYMOUR +      CLOUDY    68  55  64 S7        29.73F

$$





USA.gov is the U.S. government's official web portal to all federal, state and local government web resources and services.